222P/LINEAR (2009)

Japanese version
Home page
Updated on March 17, 2010

---------------------------------------------------------------------

* Profile

Designation 222P/2009 MB9
Rediscovery Date June 29, 2009
Magnitude 18.3 mag
Rediscoverer R. H. McNaught (Siding Spring Survey)

* Pictures

* Orbital Elements

Epoch 2009 Sept. 6.0 TT = JDT 2455080.5
T 2009 Sept. 1.09936 TT                                 MPC
q   0.7801997            (2000.0)            P               Q
n   0.20393034     Peri.  345.43464     +0.99144313     +0.13006476
a   2.8585655      Node     7.11999     -0.10898899     +0.87164881
e   0.7270660      Incl.    5.14782     -0.07184654     +0.47255847
P   4.83

* Finding Charts

* Magnitudes Graph

        m1 = 17.5 + 5 log d + 20.0 log r(t - 10)

---------------------------------------------------------------------

The orbital elements are published on M.P.E.C. 2009-P09.
The charts are made with StellaNavigator Ver.8 (AstroArts).
The magnitudes graphs are made with Comet for Windows.

---------------------------------------------------------------------

Copyright(C) Seiichi Yoshida (comet@aerith.net). All rights reserved.